Location: Bagnara
(41.0500°N, 14.7833°E)
Time: 10:29:36
(UTC+00:00)

SeaSat 1 - Pass Details

Date: 20 June 2021
Orbit: 745 x 746 km, 108.0° (Epoch: 03 August)

Event Time Altitude Azimuth Distance (km) Brightness Sun altitude
Rises 00:52:17 0° 41° (NE) 3,195 7.1 -20.7°
Reaches altitude 10° 00:55:07 10° 58° (ENE) 2,266 5.8 -20.4°
Maximum altitude 00:58:46 21° 106° (ESE) 1,651 4.3 -20.1°
Enters shadow 01:01:32 14° 146° (SE) 2,021 4.4 -19.8°
